This demonstration page uses our WeatherBlox Daily Observations layout. Learn more.

Left ArrowRight Arrow

Hourly Observations for January 25, 2022

Temp ( °F °C ) Dew Point ( °F °C ) Humidity (%) Winds ( mph kmh ) Pressure ( in mb ) Visibility ( mi km ) Precip ( " mm )
12:53 am 00:53 Mostly Clear 10 -12.2 4 -15.6 76 76 ENE 5 7 30.26 1025 10 16 0.00 0.00
1:53 am 01:53 Mostly Clear 8 -13.3 3 -16.1 80 80 ENE 6 9 30.28 1025 10 16 0.00 0.00
2:53 am 02:53 Mostly Cloudy 10 -12.2 5 -15 80 80 NE 5 7 30.29 1026 10 16 0.00 0.00
3:53 am 03:53 Cloudy 12 -11.1 5 -15 73 73 E 5 7 30.30 1026 10 16 0.00 0.00
4:53 am 04:53 Cloudy 10 -12.2 4 -15.6 76 76 NE 6 9 30.32 1027 10 16 0.00 0.00
5:53 am 05:53 Mostly Cloudy 10 -12.2 3 -16.1 73 73 ENE 5 7 30.35 1028 10 16 0.00 0.00
6:53 am 06:53 Partly Cloudy 9 -12.8 2 -16.7 73 73 E 6 9 30.39 1029 10 16 0.00 0.00
7:53 am 07:53 Mostly Cloudy 9 -12.8 1 -17.2 70 70 NE 5 7 30.42 1030 9 14 0.00 0.00
8:53 am 08:53 Sunny 10 -12.2 2 -16.7 69 69 E 5 7 30.42 1030 10 16 0.00 0.00
9:53 am 09:53 Sunny 11 -11.7 2 -16.7 67 67 ENE 5 7 30.44 1031 10 16 0.00 0.00
10:53 am 10:53 Sunny 15 -9.4 4 -15.6 61 61 ENE 3 6 30.47 1032 10 16 0.00 0.00
11:53 am 11:53 Cloudy 18 -7.8 4 -15.6 54 54 NNW 7 11 30.48 1032 10 16 0.00 0.00
12:46 pm 12:46 Cloudy with Light Snow 17 -8.3 6 -14.4 62 62 N 8 13 30.53 1034 3 4 0.00 0.00
12:53 pm 12:53 Cloudy with Light Snow 17 -8.3 9 -12.8 70 70 NNE 7 11 30.48 1032 1 2 0.00 0.00
12:58 pm 12:58 Cloudy with Light Snow 18 -8 9 -13 68 68 N 9 15 30.52 1034 3 5 0.00 0.00
1:05 pm 13:05 Cloudy 18 -7.8 8 -13.3 65 65 N 8 13 30.52 1034 9 14 0.00 0.00
1:15 pm 13:15 Cloudy with Light Snow 18 -7.8 9 -12.8 68 68 N 8 13 30.52 1034 7 11 0.00 0.00
1:35 pm 13:35 Cloudy with Light Snow 17 -8.3 11 -11.7 77 77 N 9 15 30.54 1034 2 2 0.00 0.00
1:45 pm 13:45 Cloudy with Snow 16 -8.9 11 -11.7 80 80 N 8 13 30.54 1034 1 1 0.00 0.00
1:53 pm 13:53 Cloudy with Light Snow 17 -8.3 12 -11.1 80 80 N 10 17 30.49 1033 2 3 0.00 0.00
1:57 pm 13:57 Cloudy with Light Snow 17 -8.3 12 -11.1 80 80 N 8 13 30.54 1034 3 5 0.00 0.00
2:14 pm 14:14 Cloudy 16 -8.9 11 -11.7 80 80 N 7 11 30.54 1034 10 16 0.00 0.00
2:53 pm 14:53 Cloudy with Light Snow 17 -8.3 11 -11.7 77 77 NNE 7 11 30.49 1033 5 8 0.00 0.00
3:53 pm 15:53 Cloudy 18 -7.8 11 -11.7 74 74 NNE 6 9 30.51 1033 10 16 0.00 0.00
4:53 pm 16:53 Cloudy 18 -7.8 11 -11.7 74 74 N 5 7 30.52 1034 10 16 0.00 0.00
5:53 pm 17:53 Cloudy 17 -8.3 11 -11.7 77 77 NW 3 6 30.53 1034 10 16 0.00 0.00
6:53 pm 18:53 Cloudy 18 -7.8 11 -11.7 74 74 NW 3 6 30.54 1034 10 16 0.00 0.00
7:53 pm 19:53 Cloudy 18 -7.8 12 -11.1 77 77 WNW 3 6 30.55 1035 10 16 0.00 0.00
8:53 pm 20:53 Cloudy 18 -7.8 12 -11.1 77 77 W 5 7 30.57 1035 10 16 0.00 0.00
9:53 pm 21:53 Cloudy 18 -7.8 12 -11.1 77 77 WSW 3 6 30.56 1035 10 16 0.00 0.00
10:53 pm 22:53 Cloudy 18 -7.8 12 -11.1 77 77 SW 3 6 30.55 1034 10 16 0.00 0.00
11:53 pm 23:53 Cloudy 18 -7.8 12 -11.1 77 77 SSW 5 7 30.53 1034 10 16 0.00 0.00

Powered by AerisWeather